Preview of NWS' New Version of Forecast
This preview is not operational and should not be used for support decisions.

Regional Weather Roundup (RWR)

Issued by National Weather Service (NWS)

                            
000
ASUS45 KBOI 220610
RWRID 

IDAHO REGIONAL WEATHER ROUNDUP
NATIONAL WEATHER SERVICE BOISE ID
1100 PM MST THU FEB 21 2019

NOTE: "FAIR" INDICATES FEW OR NO CLOUDS BELOW 12000 FEET
WITH NO SIGNIFICANT WEATHER AND/OR OBSTRUCTIONS TO VISIBILITY

IDZ012-014-220700-
SOUTHWEST IDAHO

  
CITY           SKY/WX    TMP DP  RH WIND       PRES   REMARKS
BOISE          CLEAR     23  18  81 W7        29.96R WCI  15          
CALDWELL       CLEAR     26  21  81 W14       30.01R WCI  14          
MOUNTAIN HOME  CLEAR     20  20 100 NW5       29.96R WCI  13          
$$

IDZ016-017-220700-
SOUTHCENTRAL IDAHO

  
CITY           SKY/WX    TMP DP  RH WIND       PRES   REMARKS
BURLEY         CLOUDY    11   7  84 S3        29.89S                  
JEROME         FOG       13   9  84 E7        29.91S VSB 1/4 WCI   3  
TWIN FALLS     CLEAR     15  13  91 S9        29.90S WCI   3          
$$

IDZ019>023-220700-
SOUTHEAST IDAHO

  
CITY           SKY/WX    TMP DP  RH WIND       PRES   REMARKS
IDAHO FALLS    CLEAR      5  -2  72 N12       29.86S WCI -11          
POCATELLO      CLEAR     11   3  70 NE8       29.86S WCI  -1          
REXBURG        CLEAR      2  -3  80 CALM      29.85R                  
$$

IDZ006-010-011-018-031-032-220700-
CENTRAL IDAHO MOUNTAINS

  
CITY           SKY/WX    TMP DP  RH WIND       PRES   REMARKS
MCCALL         CLEAR      6   2  83 NE3       29.86R                  
HAILEY         CLEAR      9   1  72 NW10      29.86R WCI  -6          
STANLEY          N/A     -7 -13  75 CALM      29.83R                  
SALMON         CLEAR      8   3  80 CALM      29.98R                  
CHALLIS        CLEAR      4  -5  66 CALM      29.90R                  
$$

IDZ002-004-006-007-026-220700-
NORTHERN IDAHO

  
CITY           SKY/WX    TMP DP  RH WIND       PRES   REMARKS
LEWISTON       CLOUDY    22  16  78 S3        30.14S                  
LOWELL           N/A     31  26  82 CALM      30.11R                  
COEUR D'ALENE  CLEAR      9   7  92 W3        30.06R                  
MULLAN PASS    CLEAR     11   3  70 SW5       29.83F WCI   3          
$$